CAPE
0 0 0 0 0 0 0 0 0 0 0 0 0 0 0 0 0 0 0 0 0 0 0 0 0 0 0 0 0 0 0 0 0 0 0 0 0 0 0 0 0 0 0 0
0 0 0 0 0 0 0 0 0 0 0 0 0 0 0 0 0 0 0 0 0 0 0 0 0 0 0 0 0 0 0 0 0 0 0 0 0 0 0 0 0 0 0 0
0 0 0 0 0 0 0 0 0 0 0 0 0 0 0 0 0 0 0 0 0 0 0 0 0 0 0 0 0 0 0 0 0 0 0 0 0 0 0 0 0 0 0 0
0 0 0 0 0 0 0 0 0 0 0 0 0 0 0 0 0 0 0 0 0 0 0 0 0 0 0 0 0 0 0 0 0 0 0 0 0 0 0 0 0 0 0 0
0 0 0 0 0 0 0 0 0 0 0 0 0 0 0 0 0 0 0 0 0 0 0 0 0 0 0 0 0 0 0 0 0 0 0 0 0 0 0 0 0 0 0 0
0 0 0 0 0 0 0 0 0 0 0 0 0 0 0 0 0 0 0 0 0 0 0 0 0 0 0 0 0 0 0 0 0 0 0 0 0 0 0 0 0 0 0 0
0 0 0 0 0 0 0 0 0 0 0 0 0 0 0 0 0 0 0 0 0 0 0 0 0 0 0 0 0 0 0 0 0 0 0 0 0 0 0 0 0 0 0 0
0 0 0 0 0 0 0 0 0 0 0 0 0 0 0 0 0 0 0 0 0 0 0 0 0 0 0 0 0 0 0 0 0 0 0 0 0 0 0 0 0 0 0 0
0 0 0 0 0 0 0 0 0 0 0 0 0 0 0 0 0 0 0 0 0 0 0 0 0 0 0 0 0 0 0 0 0 0 0 0 0 0 0 0 0 0 0 0
0 0 0 0 0 0 0 0 0 0 0 0 0 0 0 0 0 0 0 0 0 0 0 0 0 0 0 0 0 0 0 0 0 0 0 0 0 0 0 0 0 0 0 0
0 0 0 0 0 0 0 0 0 0 0 0 0 0 0 0 0 0 0 0 0 0 0 0 0 0 0 0 0 0 0 0 0 0 0 0 0 0 0 0 0 0 0 0
1 0 0 0 0 0 0 0 0 5 0 0 0 0 0 0 0 0 0 0 0 0 0 0 0 0 0 0 0 0 0 0 0 0 0 0 0 0 0 0 0 0 0 0
0 7 1 0 0 0 0 0 0 0 0 0 0 0 0 0 0 0 0 0 0 0 0 0 0 0 0 0 0 0 0 0 0 0 0 0 0 0 0 0 0 0 0 0
0 0 1 0 0 0 0 0 0 0 0 0 0 0 0 0 0 0 0 0 0 0 0 0 0 0 0 0 0 0 0 0 0 0 0 0 0 0 0 0 0 0 0 0
1 0 0 1 0 0 0 0 0 0 0 0 0 0 0 0 0 0 0 0 0 0 0 0 0 0 0 0 0 0 0 0 0 0 0 0 0 0 0 0 0 0 0 0
0 0 0 0 0 0 0 0 0 0 0 0 0 0 0 0 0 0 0 0 0 0 0 0 0 0 0 0 0 0 0 0 0 0 0 0 0 0 0 0 0 0 0 0
0 0 0 0 0 0 0 0 0 0 0 0 0 0 0 0 0 0 0 0 0 0 0 0 0 0 0 0 0 0 0 0 0 0 0 0 0 0 0 0 0 0 0 0
0 0 0 0 0 0 0 0 0 0 0 0 0 0 0 0 0 0 0 0 0 0 0 0 0 0 0 0 0 0 0 0 0 0 0 0 0 0 0 0 0 0 0 0
0 0 0 0 0 0 0 0 0 0 0 0 0 0 0 0 0 0 0 0 0 0 0 0 0 0 0 0 0 0 0 0 0 0 0 0 0 0 0 0 0 0 0 0
0 0 0 0 0 0 0 0 0 0 0 0 0 0 0 0 0 0 0 0 0 0 0 0 0 0 0 0 0 0 0 0 0 0 0 0 0 0 0 0 0 0 0 1
0 0 0 0 0 0 0 0 0 0 0 0 0 0 0 0 0 0 0 0 0 0 0 0 0 0 0 0 0 0 0 0 0 0 0 0 0 0 0 0 0 0 0 0
0 0 0 0 0 0 0 0 0 0 0 0 0 0 0 0 0 0 0 0 0 0 0 0 0 0 0 0 0 0 0 0 0 0 0 0 0 0 0 0 0 0 0 0
0 0 0 0 0 0 0 0 0 0 0 0 0 0 0 0 0 0 0 0 0 0 0 0 0 0 0 0 0 0 0 0 0 0 0 0 0 0 0 0 0 0 0 0
0 0 0 0 0 0 0 0 0 0 0 0 0 0 0 0 0 0 0 0 0 0 0 0 0 0 0 0 0 0 0 0 0 0 0 0 0 0 0 0 0 1 0 0
0 0 0 0 0 0 0 0 0 0 0 0 0 0 0 0 0 0 0 0 0 0 0 0 0 0 0 0 0 0 0 0 0 0 0 0 0 0 0 0 0 0 0 0
0 0 0 0 0 0 0 0 0 0 0 0 0 0 0 0 0 0 0 0 0 0 0 0 0 0 0 0 0 0 0 0 0 0 0 0 0 0 0 0 0 0 0 2
CIN
0 0 0 0 0 0 0 0 0 0 0 0 0 0 0 0 0 0 0 0 0 0 0 0 0 0 0 0 0 0 0 0 0 0 0 0 0 0 0 0 0 0 0 0
0 0 0 0 0 0 0 0 0 0 0 0 0 0 0 0 0 0 0 0 0 0 0 0 0 0 0 0 0 0 0 0 0 0 0 0 0 0 0 0 0 0 0 0
0 0 0 0 0 0 0 0 0 0 0 0 0 0 0 0 0 0 0 0 0 0 0 0 0 0 0 0 0 0 0 0 0 0 0 0 0 0 0 0 0 0 0 0
0 0 0 0 0 0 0 0 0 0 0 0 0 0 0 0 0 0 0 0 0 0 0 0 0 0 0 0 0 0 0 0 0 0 0 0 0 0 0 0 0 0 0 0
0 0 0 0 0 0 0 0 0 0 0 0 0 0 0 0 0 0 0 0 0 0 0 0 0 0 0 0 0 0 0 0 0 0 0 0 0 0 0 0 0 0 0 0
0 0 0 0 0 0 0 0 0 0 0 0 0 0 0 0 0 0 0 0 0 0 0 0 0 0 0 0 0 0 0 0 0 0 0 0 0 0 0 0 0 0 0 0
0 0 0 0 0 0 0 0 0 0 0 0 0 0 0 0 0 0 0 0 0 0 0 0 0 0 0 0 0 0 0 0 0 0 0 0 0 0 0 0 0 0 0 0
0 0 0 0 0 0 0 0 0 0 0 0 0 0 0 0 0 0 0 0 0 0 0 0 0 0 0 0 0 0 0 0 0 0 0 0 0 0 0 0 0 0 0 0
0 0 0 0 0 0 0 0 0 0 0 0 0 0 0 0 0 0 0 0 0 0 0 0 0 0 0 0 0 0 0 0 0 0 0 0 0 0 0 0 0 0 0 0
0 0 0 0 0 0 0 0 0 0 0 0 0 0 0 0 0 0 0 0 0 0 0 0 0 0 0 0 0 0 0 0 0 0 0 0 0 0 0 0 0 0 0 0
0 0 0 0 0 0 0 0 0 0 0 0 0 0 0 0 0 0 0 0 0 0 0 0 0 0 0 0 0 0 0 0 0 0 0 0 0 0 0 0 0 0 0 0
0 0 0 0 0 0 0 0 0 -3 0 0 0 0 0 0 0 0 0 0 0 0 0 0 0 0 0 0 0 0 0 0 0 0 0 0 0 0 0 0 0 0 0 0
-2 -8 -4 0 0 0 0 0 0 0 0 0 0 0 0 0 0 0 0 0 0 0 0 0 0 0 0 0 0 0 0 0 0 0 0 0 0 0 0 0 0 0 0 0
0 0 0 0 0 0 0 0 0 0 0 0 0 0 0 0 0 0 0 0 0 0 0 0 0 0 0 0 0 0 0 0 0 0 0 0 0 0 0 0 0 0 0 0
0 -1 0 -1 -1 0 0 0 0 0 0 0 0 0 0 0 0 0 0 0 0 0 0 0 0 0 0 0 0 0 0 0 0 0 0 0 0 0 0 0 0 0 0 0
0 0 0 0 0 0 0 0 0 0 0 0 0 0 0 0 0 0 0 0 0 0 0 0 0 0 0 0 0 0 0 0 0 0 0 0 0 0 0 0 0 0 0 0
0 0 0 0 0 0 0 0 0 0 0 0 0 0 0 0 0 0 0 0 0 0 0 0 0 0 0 0 0 0 0 0 0 0 0 0 0 0 0 0 0 0 0 0
0 0 0 0 0 0 0 0 0 0 0 0 0 0 0 0 0 0 0 0 0 0 0 0 0 0 0 0 0 0 0 0 0 0 0 0 0 0 0 0 0 0 0 0
0 0 0 0 0 0 0 0 0 0 0 0 0 0 0 0 0 0 0 0 0 0 0 0 0 0 0 0 0 0 0 0 0 0 0 0 0 0 0 0 0 0 0 0
0 0 0 0 0 0 0 0 0 0 0 0 0 0 0 0 0 0 0 0 0 0 0 0 0 0 0 0 0 0 0 0 0 0 0 0 0 0 0 0 0 0 0 0
0 0 0 0 0 0 0 0 0 0 0 0 0 0 0 0 0 0 0 0 0 0 0 0 0 0 0 0 0 0 0 0 0 0 0 0 0 0 0 0 0 0 0 0
0 0 0 0 0 0 0 0 0 0 0 0 0 0 0 0 0 0 0 0 0 0 0 0 0 0 0 0 0 0 0 0 0 0 0 0 0 0 0 0 0 0 0 0
0 0 0 0 0 0 0 0 0 0 0 0 0 0 0 0 0 0 0 0 0 0 0 0 0 0 0 0 0 0 0 0 0 0 0 0 0 0 0 0 0 0 0 0
0 0 0 0 0 0 0 0 0 0 0 0 0 0 0 0 0 0 0 0 0 0 0 0 0 0 0 0 0 0 0 0 0 0 0 0 0 0 0 0 0 0 0 0
0 0 0 0 0 0 0 0 0 0 0 0 0 0 0 0 0 0 0 0 0 0 0 0 0 0 0 0 0 0 0 0 0 0 0 0 0 0 0 0 0 0 -1 0
0 0 0 0 0 0 0 0 0 0 0 0 0 0 0 0 0 0 0 0 0 0 0 0 0 0 0 0 0 0 0 0 0 0 0 0 0 0 0 0 0 0 0 -2
Wind_Speed
22 25 25 23 23 30 33 36 38 37 38 43 42 36 26 50 41 40 40 37 36 14 25 27 26 25 20 16 16 17 19 20 20 21 22 24 27 26 25 24 23 22 22 22
27 33 26 26 27 28 32 37 41 43 38 35 43 59 41 36 35 27 37 40 39 38 33 28 27 25 23 18 11 13 15 17 18 21 23 26 25 26 27 26 25 24 24 24
31 32 27 27 30 33 35 39 41 39 43 38 46 47 35 28 31 34 34 33 34 22 24 28 28 25 25 27 24 21 17 15 15 17 20 23 25 28 27 28 29 28 28 27
32 30 31 31 33 29 39 30 36 39 39 40 33 56 37 43 34 34 29 25 24 24 26 26 27 28 29 29 31 30 25 21 20 19 20 22 25 28 28 28 29 28 29 29
34 32 29 31 29 25 34 28 31 34 37 40 35 38 39 32 31 26 20 26 25 23 29 29 30 31 34 37 37 34 32 28 26 25 26 28 28 29 30 29 29 30 31 31
33 28 29 30 28 25 28 33 35 36 36 45 35 33 38 24 27 22 27 25 28 35 33 31 32 36 42 41 39 39 38 35 32 28 27 29 30 30 31 28 28 29 31 33
33 33 30 28 34 31 31 35 42 45 42 47 36 39 36 26 37 31 37 38 40 35 33 36 43 43 44 43 43 42 41 42 35 29 29 30 31 31 32 32 32 31 31 32
44 53 31 25 27 31 30 31 39 47 55 60 42 47 41 34 38 35 32 31 29 36 38 39 41 42 43 45 46 47 44 40 36 32 30 29 29 28 32 31 31 32 32 33
41 46 30 26 28 29 34 38 35 44 45 55 55 60 52 44 28 29 27 33 39 40 43 44 43 42 44 43 43 43 44 42 38 35 34 31 30 32 35 31 29 31 33 33
34 51 38 33 31 32 35 32 42 39 47 57 63 61 58 49 47 44 43 42 44 45 46 47 46 45 44 43 43 42 41 41 40 39 38 34 34 35 35 33 32 32 32 32
34 38 42 38 37 41 41 42 41 41 43 56 63 61 38 39 39 41 45 45 46 47 47 47 47 45 44 44 43 42 42 43 44 43 43 41 39 38 35 35 34 33 31 31
35 39 55 58 46 41 41 46 47 55 57 54 57 63 55 42 42 47 48 48 46 46 47 47 48 48 47 46 46 47 47 45 46 46 45 44 44 43 41 39 37 33 32 31
35 45 52 51 44 39 42 41 41 43 43 53 62 57 45 56 60 52 50 49 48 47 48 48 49 49 49 48 47 47 47 47 48 48 47 47 47 47 47 46 42 36 35 35
31 43 53 62 62 48 52 48 46 48 56 61 61 68 65 66 63 52 49 48 49 48 49 49 49 50 49 48 48 47 49 48 50 50 50 50 50 50 50 49 45 40 40 37
37 56 52 53 49 48 52 57 59 61 59 65 70 67 57 49 48 49 48 47 47 47 50 50 51 50 50 51 50 49 49 50 51 52 52 52 51 50 50 49 49 47 45 43
34 47 46 54 51 49 58 58 61 62 62 61 59 61 41 37 41 45 51 52 51 51 54 52 51 51 51 51 51 51 51 52 52 52 54 52 51 51 51 50 49 49 49 46
43 47 52 65 57 56 67 62 61 56 49 50 57 44 38 43 44 45 50 50 52 55 56 55 53 53 53 53 52 52 52 53 53 53 53 53 52 54 52 51 50 48 48 48
47 49 49 62 56 73 57 40 38 44 41 37 38 39 41 45 46 46 47 46 52 56 59 57 55 55 53 54 53 54 54 55 55 55 53 52 55 55 54 53 52 50 47 46
37 41 48 55 56 55 54 44 44 47 50 38 40 42 46 48 47 51 42 42 49 53 55 54 54 55 55 55 54 56 57 56 56 56 55 57 57 57 56 55 55 52 50 46
31 31 39 43 54 59 44 32 33 35 60 34 38 48 49 47 56 57 46 42 50 51 52 54 54 55 56 57 55 58 59 58 58 56 56 57 56 56 56 56 56 53 49 46
37 36 42 46 50 48 38 34 32 50 48 41 48 51 52 53 50 51 47 47 48 51 53 51 52 56 56 55 56 58 57 59 57 56 58 58 57 57 57 57 55 54 50 48
36 37 39 37 45 53 30 28 36 44 49 51 52 51 50 50 48 48 46 49 50 51 52 52 54 56 55 54 55 58 60 58 56 59 61 61 61 60 58 58 57 54 51 51
38 32 39 37 40 33 32 44 47 44 46 49 48 48 48 50 49 46 48 50 51 51 52 54 55 57 57 55 55 59 61 60 62 62 64 64 64 63 60 60 59 56 52 52
35 32 40 44 40 38 41 42 40 40 43 44 43 45 46 48 46 48 51 52 54 56 56 55 56 58 60 59 58 59 62 61 64 67 68 67 67 66 63 60 58 56 54 53
36 33 39 42 38 40 41 37 37 40 41 41 41 42 45 46 50 49 53 54 55 57 57 55 57 61 64 64 64 62 63 64 68 68 69 68 66 65 65 61 58 58 55 53
33 35 38 42 38 39 41 39 36 40 41 40 43 46 43 44 49 50 53 53 55 58 59 62 62 62 64 65 66 65 63 63 65 69 68 66 64 63 62 62 62 55 57 56
Wind_Direction
301 296 289 291 290 302 305 304 304 307 310 306 304 303 287 288 284 264 263 263 264 307 255 320 322 320 317 307 293 281 276 271 267 259 253 254 246 249 250 249 248 243 244 241
299 289 290 299 300 297 299 301 303 307 311 309 308 281 309 264 258 253 262 270 303 291 307 321 328 329 330 330 319 305 288 279 267 266 264 269 262 259 257 257 254 246 244 245
287 296 304 295 296 298 297 297 302 305 309 308 307 307 314 319 316 310 310 313 302 324 317 323 328 331 331 330 333 327 311 294 277 271 274 272 276 274 263 258 257 251 248 245
294 299 296 296 294 294 295 302 301 303 308 308 317 290 307 310 312 310 310 319 322 321 329 330 329 333 332 332 328 325 322 309 293 280 272 260 260 261 261 258 259 254 247 248
294 300 300 297 298 301 299 308 305 304 303 306 307 304 310 319 317 318 326 328 333 339 332 329 329 329 329 329 324 325 322 317 306 289 278 277 272 273 278 271 264 258 255 250
295 300 298 297 300 298 304 303 302 302 301 296 300 299 309 317 320 320 326 332 333 325 326 326 327 327 325 326 325 322 319 318 313 301 286 277 275 274 274 271 265 263 261 256
304 299 301 297 294 297 296 299 298 294 291 291 304 298 292 305 310 314 316 315 316 320 326 324 321 321 324 326 326 325 324 322 321 311 297 285 279 275 273 272 270 266 263 256
298 293 302 301 294 297 294 292 291 293 290 289 295 287 294 303 306 311 320 321 323 322 324 326 327 325 325 325 325 326 327 328 325 317 309 299 290 282 279 275 272 268 266 262
297 294 303 298 301 297 295 289 296 290 289 289 287 287 295 299 310 322 324 321 318 321 322 321 325 328 327 327 329 330 328 327 324 319 310 306 299 290 286 282 276 274 272 268
297 293 299 299 299 296 291 297 290 292 289 285 284 289 288 292 304 307 309 311 314 317 319 320 322 324 325 327 327 327 329 329 326 319 311 311 303 295 291 286 281 277 274 267
296 290 290 296 292 295 295 290 291 291 286 286 285 284 297 305 308 307 307 311 314 315 316 318 319 323 325 325 325 324 324 322 320 317 314 309 306 298 294 288 286 281 276 270
296 297 290 288 291 291 287 285 286 284 287 281 280 279 293 300 309 308 307 307 312 315 317 318 318 317 318 321 320 319 317 316 317 314 311 311 303 297 293 290 286 284 279 272
296 291 291 292 293 296 292 292 289 291 291 286 283 287 295 296 303 305 305 306 311 313 316 318 320 319 319 319 319 319 317 313 312 312 310 307 305 301 293 288 287 285 280 276
299 290 286 286 289 294 289 291 292 292 287 288 286 291 293 297 297 303 307 308 310 314 316 317 317 318 319 319 318 316 313 313 311 310 309 307 307 305 297 292 288 285 280 275
296 288 289 288 291 292 290 288 288 287 289 288 291 292 297 299 301 301 306 310 310 312 316 317 316 316 316 317 316 316 315 314 312 309 308 308 310 310 306 301 291 284 279 276
304 293 296 291 293 294 290 290 290 290 291 291 292 293 303 304 305 304 304 303 304 308 312 313 313 314 315 316 316 315 312 313 313 310 308 310 310 310 308 304 298 288 281 278
295 294 294 289 293 294 288 290 291 292 294 295 294 298 305 304 305 307 307 305 305 307 308 309 310 309 310 312 314 313 313 313 313 313 311 310 307 304 304 302 299 296 286 278
290 291 291 290 294 286 294 301 300 297 298 300 302 304 305 305 305 306 308 305 307 308 308 307 308 308 308 309 309 308 308 310 311 310 310 310 308 303 300 297 298 297 296 287
285 288 290 289 288 292 294 297 298 298 296 298 301 305 307 308 306 303 306 306 309 310 309 308 308 308 307 307 308 308 308 309 309 308 307 307 306 301 298 297 297 297 297 295
299 288 288 291 290 291 299 304 308 307 295 298 303 307 309 310 303 304 308 306 310 311 311 309 309 309 308 308 309 307 306 306 306 306 305 305 303 300 297 296 294 295 297 296
300 297 286 288 291 295 301 305 310 298 303 307 308 308 309 307 305 308 307 307 310 311 311 312 310 308 308 309 309 306 305 303 305 304 303 302 301 298 298 295 294 294 294 294
299 299 297 297 295 296 309 310 304 308 307 308 308 308 309 309 309 310 309 308 311 312 312 312 311 309 309 309 308 305 303 304 303 302 300 299 297 296 296 294 293 293 290 285
297 296 298 295 297 306 307 305 307 309 308 309 310 311 312 311 311 311 311 311 312 313 312 312 311 309 308 308 307 304 303 303 301 299 297 296 294 293 293 290 290 287 284 281
300 300 295 299 300 300 303 306 308 310 311 312 313 313 314 313 313 313 313 313 313 313 313 313 311 309 308 308 306 304 303 303 300 297 295 294 292 290 289 288 286 282 280 277
301 305 303 299 302 306 306 309 312 313 315 316 317 317 317 316 314 316 314 314 314 314 314 314 312 309 307 307 305 305 304 302 299 296 294 291 290 287 284 284 283 279 276 274
299 297 298 298 306 307 308 313 317 316 316 319 319 318 320 320 317 318 316 317 317 316 315 314 312 311 309 308 306 305 304 302 299 295 293 291 288 286 283 280 280 280 276 274